KT5AL Weather Reports


Display with metric or nautical units.
time (UTC)temp
F
wind
direction
speed
MPH
gust
MPH
rain 1hr
in
rain 24hr
in
rain mn
in
humidity
%
barometer
mb
20260504183008 76 180 22.0 28.0 0.00 0.00 0.00 60 1008.3
20260504182505 76 180 20.0 27.0 0.00 0.00 0.00 60 1008.3
20260504182008 76 157 18.0 24.0 0.00 0.00 0.00 59 1008.3
20260504181505 76 157 22.0 29.0 0.00 0.00 0.00 60 1008.7
20260504181008 76 157 20.0 24.0 0.00 0.00 0.00 60 1008.7
20260504180505 76 180 19.0 24.0 0.00 0.00 0.00 59 1009.0
20260504180008 75 157 22.0 27.0 0.00 0.00 0.00 60 1009.0
20260504175505 75 180 17.0 26.0 0.00 0.00 0.00 61 1009.0
20260504175008 75 180 22.0 28.0 0.00 0.00 0.00 60 1009.0
20260504174506 75 157 23.0 29.0 0.00 0.00 0.00 60 1009.4
20260504174007 74 157 20.0 28.0 0.00 0.00 0.00 63 1009.4
20260504173505 75 157 23.0 30.0 0.00 0.00 0.00 60 1009.4
20260504173008 74 157 19.0 25.0 0.00 0.00 0.00 60 1009.4
20260504172505 74 157 24.0 30.0 0.00 0.00 0.00 61 1009.7
20260504172008 74 157 22.0 28.0 0.00 0.00 0.00 61 1009.7
20260504171509 74 180 23.0 28.0 0.00 0.00 0.00 61 1009.7
20260504171006 74 157 21.0 27.0 0.00 0.00 0.00 61 1009.7
20260504170503 74 157 20.0 25.0 0.00 0.00 0.00 61 1010.0
20260504151004 70 157 18.0 25.0 0.00 0.00 0.00 67 1011.7
20260504150507 70 180 20.0 23.0 0.00 0.00 0.00 66 1011.7
20260504141006 67 180 23.0 27.0 0.00 0.00 0.00 73 1012.4
20260504140503 67 202 24.0 27.0 0.00 0.00 0.00 73 1012.4
20260504130508 64 180 20.0 25.0 0.00 0.00 0.00 78 1013.8
20260504110508 62 180 15.0 20.0 0.00 0.00 0.00 79 1013.8
20260504100507 63 180 15.0 17.0 0.00 0.00 0.00 72 1014.1
20260504082008 61 180 8.0 10.0 0.00 0.00 0.00 71 1015.1
20260504081506 61 180 8.0 10.0 0.00 0.00 0.00 71 1015.1
20260504081008 61 180 9.0 10.0 0.00 0.00 0.00 72 1015.1
20260504080505 61 180 7.0 9.0 0.00 0.00 0.00 72 1015.1
20260504050539 65 180 9.0 13.0 0.00 0.00 0.00 60 1016.5
20260504050007 65 180 9.0 10.0 0.00 0.00 0.00 60 1016.5
20260504045504 65 180 10.0 11.0 0.00 0.00 0.00 60 1016.5
20260504045007 65 180 9.0 10.0 0.00 0.00 0.00 60 1016.5
20260504044505 65 180 9.0 10.0 0.00 0.00 0.00 60 1016.5
20260504044007 65 180 9.0 11.0 0.00 0.00 0.00 60 1016.5
20260504043504 65 180 9.0 10.0 0.00 0.00 0.00 60 1016.5
20260504043007 65 180 9.0 10.0 0.00 0.00 0.00 59 1016.5
20260504042504 65 180 9.0 10.0 0.00 0.00 0.00 59 1016.5
20260504042007 65 180 9.0 10.0 0.00 0.00 0.00 58 1016.5
20260504041504 66 180 9.0 11.0 0.00 0.00 0.00 57 1016.5
20260504041007 66 180 9.0 10.0 0.00 0.00 0.00 57 1016.5
20260504040504 66 180 9.0 10.0 0.00 0.00 0.00 56 1016.5
20260504040007 66 180 9.0 11.0 0.00 0.00 0.00 56 1016.5
20260504035504 66 180 10.0 12.0 0.00 0.00 0.00 55 1016.5
20260504035004 66 180 9.0 10.0 0.00 0.00 0.00 55 1016.5
20260504034507 67 180 9.0 10.0 0.00 0.00 0.00 54 1016.5
20260504034004 67 180 9.0 11.0 0.00 0.00 0.00 54 1016.5
20260504033507 67 180 9.0 11.0 0.00 0.00 0.00 53 1016.1
20260504033004 67 180 8.0 9.0 0.00 0.00 0.00 52 1016.1
20260504032507 67 180 9.0 10.0 0.00 0.00 0.00 52 1016.1
20260504032004 67 180 9.0 11.0 0.00 0.00 0.00 51 1016.1
20260504031507 68 180 10.0 12.0 0.00 0.00 0.00 51 1015.8
20260504031004 68 180 9.0 11.0 0.00 0.00 0.00 51 1015.8
20260504030507 68 180 10.0 12.0 0.00 0.00 0.00 50 1015.8
20260504030030 69 180 9.0 12.0 0.00 0.00 0.00 50 1015.8
20260504025507 69 180 9.0 10.0 0.00 0.00 0.00 49 1015.4
20260504025004 69 180 9.0 12.0 0.00 0.00 0.00 48 1015.4
20260504024507 70 157 11.0 13.0 0.00 0.00 0.00 48 1015.4
20260504024004 70 157 10.0 12.0 0.00 0.00 0.00 48 1015.4
20260504023507 70 157 10.0 12.0 0.00 0.00 0.00 47 1015.1
20260504023008 70 135 9.0 12.0 0.00 0.00 0.00 46 1015.1
20260504022508 70 157 9.0 11.0 0.00 0.00 0.00 46 1015.1
20260504022005 70 180 10.0 14.0 0.00 0.00 0.00 46 1015.1
20260504021508 70 157 11.0 14.0 0.00 0.00 0.00 46 1015.1
20260504021008 70 157 9.0 13.0 0.00 0.00 0.00 45 1015.1
20260504020503 70 157 10.0 13.0 0.00 0.00 0.00 45 1015.1
20260504020006 71 157 10.0 12.0 0.00 0.00 0.00 45 1015.1
20260504015503 71 157 9.0 12.0 0.00 0.00 0.00 45 1015.1
20260504015006 71 157 8.0 10.0 0.00 0.00 0.00 45 1015.1
20260504014503 71 157 8.0 10.0 0.00 0.00 0.00 50 1014.8
20260504014006 71 157 9.0 11.0 0.00 0.00 0.00 43 1014.8
20260504013503 71 157 10.0 12.0 0.00 0.00 0.00 43 1014.8
20260504013006 70 180 9.0 12.0 0.00 0.00 0.00 53 1014.8
20260504012503 72 157 9.0 12.0 0.00 0.00 0.00 44 1014.4
20260504012007 72 157 9.0 12.0 0.00 0.00 0.00 44 1014.4
20260504011504 72 157 7.0 9.0 0.00 0.00 0.00 44 1014.4
20260504011007 72 157 7.0 9.0 0.00 0.00 0.00 44 1014.4
20260504010504 73 180 6.0 8.0 0.00 0.00 0.00 43 1013.8
20260504010007 73 180 6.0 8.0 0.00 0.00 0.00 42 1013.8
20260504005531 74 157 8.0 10.0 0.00 0.00 0.00 40 1013.8
20260504005008 74 157 8.0 10.0 0.00 0.00 0.00 39 1013.8
20260504004504 74 180 10.0 12.0 0.00 0.00 0.00 38 1013.8
20260504004007 75 157 10.0 11.0 0.00 0.00 0.00 38 1013.8
20260504003509 75 180 13.0 15.0 0.00 0.00 0.00 37 1013.4
20260504003006 76 180 8.0 10.0 0.00 0.00 0.00 37 1013.4
20260504002507 76 202 9.0 11.0 0.00 0.00 0.00 37 1013.4
20260504002004 77 202 10.0 12.0 0.00 0.00 0.00 35 1013.4
20260504001507 77 180 10.0 14.0 0.00 0.00 0.00 35 1013.1
20260504001004 77 180 10.0 12.0 0.00 0.00 0.00 36 1013.1
20260504000507 78 225 11.0 14.0 0.00 0.00 0.00 34 1013.1
20260504000005 78 202 13.0 19.0 0.00 0.00 0.00 34 1013.1
20260503235508 78 202 10.0 13.0 0.00 0.00 0.00 34 1013.1
20260503235005 78 180 14.0 17.0 0.00 0.00 0.00 32 1013.1
20260503234508 78 180 16.0 20.0 0.00 0.00 0.00 30 1013.4
20260503234005 78 202 14.0 19.0 0.00 0.00 0.00 31 1013.4
20260503233511 79 202 10.0 13.0 0.00 0.00 0.00 33 1013.4
20260503233006 79 180 11.0 14.0 0.00 0.00 0.00 31 1013.4
20260503232503 79 202 15.0 18.0 0.00 0.00 0.00 30 1013.4
20260503232006 79 180 16.0 20.0 0.00 0.00 0.00 31 1013.4
20260503231503 79 202 14.0 17.0 0.00 0.00 0.00 32 1013.8
20260503231006 78 202 15.0 20.0 0.00 0.00 0.00 30 1013.8
20260503230504 78 202 14.0 18.0 0.00 0.00 0.00 31 1013.4
20260503230007 78 202 12.0 14.0 0.00 0.00 0.00 32 1013.4
20260503225504 78 202 13.0 16.0 0.00 0.00 0.00 29 1013.4
20260503225033 79 202 13.0 16.0 0.00 0.00 0.00 30 1013.4
20260503224504 79 202 16.0 19.0 0.00 0.00 0.00 30 1013.4
20260503224007 79 180 14.0 17.0 0.00 0.00 0.00 30 1013.4
20260503223504 79 180 20.0 23.0 0.00 0.00 0.00 30 1013.4
20260503223007 79 180 13.0 16.0 0.00 0.00 0.00 31 1013.4
20260503222504 79 180 16.0 19.0 0.00 0.00 0.00 29 1013.4
20260503222007 80 180 14.0 19.0 0.00 0.00 0.00 29 1013.4
20260503221504 80 157 17.0 21.0 0.00 0.00 0.00 29 1013.4
20260503221003 80 180 13.0 19.0 0.00 0.00 0.00 29 1013.4
20260503220506 79 202 15.0 19.0 0.00 0.00 0.00 30 1013.8
20260503220003 80 180 17.0 20.0 0.00 0.00 0.00 29 1013.8
20260503215506 80 202 15.0 19.0 0.00 0.00 0.00 31 1013.8
20260503215003 80 202 13.0 17.0 0.00 0.00 0.00 32 1013.8
20260503214506 80 180 13.0 16.0 0.00 0.00 0.00 29 1013.8
20260503214009 80 202 13.0 17.0 0.00 0.00 0.00 30 1013.8
20260503213505 80 202 11.0 14.0 0.00 0.00 0.00 33 1014.1
20260503213009 80 202 17.0 20.0 0.00 0.00 0.00 30 1014.1
20260503212506 80 202 16.0 19.0 0.00 0.00 0.00 30 1014.4
20260503212004 79 202 12.0 15.0 0.00 0.00 0.00 29 1014.4
20260503211507 80 225 11.0 15.0 0.00 0.00 0.00 30 1014.4
20260503211004 80 180 12.0 16.0 0.00 0.00 0.00 31 1014.4
20260503210507 79 202 16.0 19.0 0.00 0.00 0.00 28 1014.8
20260503210005 79 202 19.0 23.0 0.00 0.00 0.00 29 1014.8
20260503205504 79 202 14.0 18.0 0.00 0.00 0.00 30 1014.8
20260503205007 79 202 19.0 22.0 0.00 0.00 0.00 29 1014.8
20260503204536 79 180 13.0 16.0 0.00 0.00 0.00 34 1015.1
20260503204008 79 180 16.0 19.0 0.00 0.00 0.00 34 1015.1
20260503203505 79 202 13.0 16.0 0.00 0.00 0.00 33 1015.1
20260503203005 79 202 19.0 23.0 0.00 0.00 0.00 30 1015.1
20260503202508 79 202 12.0 15.0 0.00 0.00 0.00 32 1015.4
20260503202009 79 202 13.0 18.0 0.00 0.00 0.00 32 1015.4
20260503201505 79 202 13.0 16.0 0.00 0.00 0.00 32 1015.8
20260503201008 79 202 10.0 13.0 0.00 0.00 0.00 30 1015.8
20260503200505 79 225 14.0 19.0 0.00 0.00 0.00 29 1015.8
20260503200008 79 157 11.0 20.0 0.00 0.00 0.00 30 1015.8
20260503195505 79 180 19.0 21.0 0.00 0.00 0.00 29 1015.8
20260503195008 79 202 17.0 19.0 0.00 0.00 0.00 34 1015.8
20260503194505 78 202 12.0 15.0 0.00 0.00 0.00 36 1016.1
20260503194008 78 180 11.0 17.0 0.00 0.00 0.00 37 1016.1
20260503193505 78 202 16.0 19.0 0.00 0.00 0.00 34 1016.1
20260503193008 78 202 15.0 19.0 0.00 0.00 0.00 34 1016.1
20260503192507 78 180 17.0 22.0 0.00 0.00 0.00 32 1016.5
20260503192004 78 202 11.0 14.0 0.00 0.00 0.00 38 1016.5
20260503191507 77 225 11.0 14.0 0.00 0.00 0.00 34 1016.5
20260503191004 77 225 17.0 21.0 0.00 0.00 0.00 34 1016.5
20260503190507 78 225 14.0 18.0 0.00 0.00 0.00 37 1016.5
20260503190004 77 225 9.0 11.0 0.00 0.00 0.00 37 1016.5
20260503185507 77 202 17.0 20.0 0.00 0.00 0.00 34 1017.1
20260503185008 78 202 12.0 17.0 0.00 0.00 0.00 37 1017.1
20260503184505 78 202 13.0 17.0 0.00 0.00 0.00 39 1017.1
20260503184046 77 247 13.0 17.0 0.00 0.00 0.00 38 1017.1
20260503183504 77 225 16.0 19.0 0.00 0.00 0.00 33 1017.1